Change the Weather History Date:

Tuesday, January 29, 2013

  Actual Average (KEGE) Record (KEGE)
Temperature  
Mean Temperature 5 °F -  
Max Temperature 17 °F 37 °F 50 °F (1971)
Min Temperature -9 °F 6 °F -29 °F (1949)
Degree Days  
Heating Degree Days 60    
Moisture  
Dew Point 3 °F    
Average Humidity 73    
Maximum Humidity 93    
Minimum Humidity 53    
Precipitation  
Precipitation 0.00 in - - ()
Sea Level Pressure  
Sea Level Pressure 29.77 in    
Wind  
Wind Speed 1 mph (NE)    
Max Wind Speed 6 mph    
Max Gust Speed -    
Averages and records for this station are not official NWS values.
T = Trace of Precipitation, MM = Missing Value Source: NWS Daily Summary

Daily Weather History Graph

Daily Weather History Graph

Search for Another Location

Airport or City:

Trip Planner

Search our weather history database for the weather conditions in past years. The results will help you decide how hot, cold, wet, or windy it might be!

Date:

Astronomy

Jan. 29, 2013 Rise Set
Actual Time 7:16 AM MST 5:21 PM MST
Civil Twilight 6:47 AM MST 5:50 PM MST
Nautical Twilight 6:15 AM MST 6:22 PM MST
Astronomical Twilight 5:43 AM MST 6:54 PM MST
Moon 8:20 PM MST (1/29) 8:14 AM MST (1/29)
Length of Visible Light 11h 02m
Length of Day
10h 04m
Waning Gibbous, 93% of the Moon is Illuminated
Jan 29
Waning Gibbous
Feb 3
Last Quarter
Feb 10
New
Feb 17
First Quarter
Feb 25
Full

Hourly Weather History & Observations

Time (MST) Temp. Windchill Dew Point Humidity Pressure Visibility Wind Dir Wind Speed Gust Speed Precip Events Conditions
12:16 AM 17.6 °F - 12.2 °F 79% 29.76 in - Calm Calm - N/A Snow Light Snow
12:36 AM 15.8 °F - 12.2 °F 86% 29.75 in - Calm Calm - N/A Snow Light Snow
12:56 AM 14.0 °F 8.2 °F 12.2 °F 93% 29.74 in - SE 3.5 mph - N/A Snow Light Snow
1:16 AM 14.0 °F 6.5 °F 12.2 °F 93% 29.74 in - ESE 4.6 mph - N/A Snow Light Snow
1:36 AM 14.0 °F - 12.2 °F 93% 29.73 in - Calm Calm - N/A Snow Light Snow
1:56 AM 14.0 °F - 12.2 °F 93% 29.73 in - Calm Calm - N/A Snow Light Snow
2:16 AM 14.0 °F - 12.2 °F 93% 29.74 in - Calm Calm - N/A Snow Light Snow
2:36 AM 14.0 °F - 12.2 °F 93% 29.73 in - Calm Calm - N/A Snow Light Snow
2:56 AM 14.0 °F - 12.2 °F 93% 29.74 in - Calm Calm - N/A Snow Light Snow
3:16 AM 14.0 °F - 12.2 °F 93% 29.73 in - Calm Calm - N/A Snow Light Snow
3:36 AM 12.2 °F 6.1 °F 10.4 °F 92% 29.73 in - SE 3.5 mph - N/A   Unknown
4:16 AM 12.2 °F 6.1 °F 8.6 °F 85% 29.72 in - SE 3.5 mph - N/A   Overcast
4:36 AM 12.2 °F 6.1 °F 8.6 °F 85% 29.72 in - East 3.5 mph - N/A   Overcast
4:56 AM 12.2 °F - 8.6 °F 85% 29.73 in - Calm Calm - N/A   Unknown
5:15 AM 10.4 °F 2.2 °F 6.8 °F 85% 29.72 in - West 4.6 mph - N/A   Unknown
5:36 AM 10.4 °F - 5.0 °F 79% 29.73 in - Calm Calm - N/A   Overcast
5:56 AM 10.4 °F 4.0 °F 5.0 °F 79% 29.73 in - SE 3.5 mph - N/A   Overcast
6:16 AM 10.4 °F - 5.0 °F 79% 29.73 in - Calm Calm - N/A   Overcast
6:36 AM 10.4 °F - 5.0 °F 79% 29.74 in - Calm Calm - N/A   Overcast
6:56 AM 10.4 °F 4.0 °F 5.0 °F 79% 29.74 in - ESE 3.5 mph - N/A   Unknown
7:16 AM 5.0 °F - 1.4 °F 85% 29.74 in - Calm Calm - N/A   Overcast
7:36 AM 3.2 °F - -0.4 °F 85% 29.75 in - Calm Calm - N/A   Mostly Cloudy
7:56 AM 3.2 °F - -0.4 °F 85% 29.75 in - Calm Calm - N/A   Mostly Cloudy
8:16 AM 8.6 °F - 3.2 °F 79% 29.74 in - Calm Calm - N/A   Unknown
8:36 AM 8.6 °F - -0.4 °F 67% 29.74 in - Calm Calm - N/A   Mostly Cloudy
8:56 AM 10.4 °F 4.0 °F 1.4 °F 67% 29.74 in - East 3.5 mph - N/A   Clear
9:16 AM 10.4 °F 2.2 °F 1.4 °F 67% 29.75 in - East 4.6 mph - N/A   Scattered Clouds
9:36 AM 10.4 °F - 1.4 °F 67% 29.74 in - Calm Calm - N/A   Clear
9:56 AM 10.4 °F - 1.4 °F 67% 29.74 in - Calm Calm - N/A   Clear
10:16 AM 12.2 °F 6.1 °F 1.4 °F 62% 29.74 in - NNE 3.5 mph - N/A   Clear
10:35 AM 12.2 °F - 1.4 °F 62% 29.74 in - Calm Calm - N/A   Clear
10:55 AM 14.0 °F - 3.2 °F 62% 29.74 in - Calm Calm - N/A   Clear
11:16 AM 17.6 °F 12.3 °F 3.2 °F 53% 29.73 in - NNE 3.5 mph - N/A   Mostly Cloudy
11:36 AM 14.0 °F - 1.4 °F 57% 29.73 in - Calm Calm - N/A   Overcast
11:56 AM 17.6 °F - 3.2 °F 53% 29.72 in - Calm Calm - N/A   Overcast
12:16 PM 17.6 °F - 3.2 °F 53% 29.71 in - Calm Calm - N/A   Overcast
12:36 PM 17.6 °F 12.3 °F 6.8 °F 63% 29.71 in - NNE 3.5 mph - N/A   Overcast
12:56 PM 17.6 °F - 5.0 °F 58% 29.70 in - Calm Calm - N/A   Overcast
1:16 PM 17.6 °F 12.3 °F 8.6 °F 68% 29.70 in - East 3.5 mph - N/A Snow Light Snow
1:36 PM 15.8 °F 10.2 °F 6.8 °F 68% 29.70 in - ESE 3.5 mph - N/A   Overcast
1:56 PM 15.8 °F - 8.6 °F 73% 29.70 in - Calm Calm - N/A   Overcast
2:16 PM 17.6 °F - 6.8 °F 63% 29.70 in - Calm Calm - N/A   Overcast
2:36 PM 17.6 °F - 8.6 °F 68% 29.70 in - Calm Calm - N/A   Overcast
2:56 PM 17.6 °F - 8.6 °F 68% 29.71 in - Calm Calm - N/A   Overcast
3:16 PM 17.6 °F - 5.0 °F 58% 29.72 in - Calm Calm - N/A   Mostly Cloudy
3:36 PM 17.6 °F - 6.8 °F 63% 29.73 in - Calm Calm - N/A   Overcast
3:56 PM 17.6 °F - 5.0 °F 58% 29.74 in - Calm Calm - N/A   Overcast
4:16 PM 17.6 °F 9.3 °F 5.0 °F 58% 29.75 in - West 5.8 mph - N/A   Overcast
4:36 PM 17.6 °F - 5.0 °F 58% 29.77 in - Calm Calm - N/A   Mostly Cloudy
4:56 PM 17.6 °F - 3.2 °F 53% 29.78 in - Calm Calm - N/A   Mostly Cloudy
5:16 PM 14.0 °F 6.5 °F 3.2 °F 62% 29.78 in - NNW 4.6 mph - N/A   Overcast
5:36 PM 14.0 °F 8.2 °F 3.2 °F 62% 29.79 in - NW 3.5 mph - N/A   Mostly Cloudy
5:56 PM 14.0 °F 6.5 °F 3.2 °F 62% 29.81 in - North 4.6 mph - N/A   Mostly Cloudy
6:16 PM 14.0 °F 6.5 °F 1.4 °F 57% 29.81 in - North 4.6 mph - N/A   Overcast
6:36 PM 12.2 °F 4.3 °F 1.4 °F 62% 29.83 in - NNW 4.6 mph - N/A   Overcast
6:56 PM 12.2 °F 6.1 °F 1.4 °F 62% 29.83 in - WNW 3.5 mph - N/A   Scattered Clouds
7:15 PM 8.6 °F 0.1 °F -0.4 °F 67% 29.84 in - ENE 4.6 mph - N/A   Clear
7:35 PM 6.8 °F - -2.2 °F 67% 29.86 in - Calm Calm - N/A   Clear
7:56 PM 6.8 °F - -2.2 °F 67% 29.86 in - Calm Calm - N/A   Clear
8:15 PM 3.2 °F - -4.0 °F 72% 29.86 in - Calm Calm - N/A   Clear
8:35 PM 3.2 °F -6.2 °F -4.0 °F 72% 29.88 in - North 4.6 mph - N/A   Clear
8:56 PM 1.4 °F - -5.8 °F 72% 29.89 in - Calm Calm - N/A   Clear
9:16 PM -0.4 °F -8.3 °F -5.8 °F 78% 29.89 in - North 3.5 mph - N/A   Clear
9:36 PM -4.0 °F - -9.4 °F 78% 29.89 in - Calm Calm - N/A   Clear
9:56 PM -5.8 °F - -9.4 °F 84% 29.90 in - Calm Calm - N/A   Unknown
10:16 PM -5.8 °F - -9.4 °F 84% 29.91 in - Calm Calm - N/A   Unknown
10:36 PM -5.8 °F - -11.2 °F 77% 29.91 in - Calm Calm - N/A   Clear
10:56 PM -7.6 °F - -13.0 °F 77% 29.91 in - Calm Calm - N/A   Clear
11:16 PM -7.6 °F - -13.0 °F 77% 29.92 in - Calm Calm - N/A   Scattered Clouds
11:35 PM -7.6 °F - -14.8 °F 71% 29.92 in - Calm Calm - N/A   Clear
11:56 PM -9.4 °F - -14.8 °F 77% 29.92 in - Calm Calm - N/A   Clear